Year,Month,Day,Hour,Minute,Value (Times are PST for temperature in C)
2006,10,09,00,00,6.40
2006,10,09,00,01,6.40
2006,10,09,00,02,6.40
2006,10,09,00,03,6.40
2006,10,09,00,04,6.30
2006,10,09,00,05,6.30
2006,10,09,00,06,6.30
2006,10,09,00,07,6.30
2006,10,09,00,08,6.30
2006,10,09,00,09,6.30
2006,10,09,00,10,6.20
2006,10,09,00,11,6.20
2006,10,09,00,12,6.20
2006,10,09,00,13,6.20
2006,10,09,01,02,6.40
2006,10,09,01,03,6.40
2006,10,09,01,04,6.50
2006,10,09,01,05,6.60
2006,10,09,01,06,6.60
2006,10,09,01,07,6.60
2006,10,09,01,08,6.60
2006,10,09,01,09,6.60
2006,10,09,01,10,6.60
2006,10,09,01,11,6.60
2006,10,09,01,12,6.40
2006,10,09,01,13,6.40
2006,10,09,01,14,6.40
2006,10,09,01,15,6.40
2006,10,09,01,16,6.30
2006,10,09,01,17,6.30
2006,10,09,01,18,6.30
2006,10,09,01,19,6.20
2006,10,09,01,20,6.20
2006,10,09,01,21,6.20
2006,10,09,01,22,6.20
2006,10,09,01,23,6.20
2006,10,09,01,24,6.10
2006,10,09,01,25,6.10
2006,10,09,01,26,6.10
2006,10,09,01,27,6.00
2006,10,09,01,28,6.00
2006,10,09,01,29,6.00
2006,10,09,01,30,6.00
2006,10,09,01,31,6.00
2006,10,09,01,32,6.00
2006,10,09,01,33,6.00
2006,10,09,01,34,6.00
2006,10,09,01,35,6.00
2006,10,09,01,36,6.00
2006,10,09,01,37,6.00
2006,10,09,01,38,5.90
2006,10,09,01,39,5.90
2006,10,09,01,40,5.90
2006,10,09,01,41,5.90
2006,10,09,01,42,5.90
2006,10,09,01,43,5.90
2006,10,09,01,44,5.90
2006,10,09,01,45,5.90
2006,10,09,01,46,5.90
2006,10,09,01,47,5.90
2006,10,09,01,48,5.90
2006,10,09,01,49,5.90
2006,10,09,01,50,5.90
2006,10,09,01,51,5.80
2006,10,09,01,52,5.80
2006,10,09,01,53,5.80
2006,10,09,01,54,5.80
2006,10,09,01,55,5.80
2006,10,09,01,56,5.80
2006,10,09,01,57,5.80
2006,10,09,01,58,5.80
2006,10,09,01,59,5.80
2006,10,09,02,00,5.80
2006,10,09,02,01,5.80
2006,10,09,02,02,5.80
2006,10,09,02,03,5.80
2006,10,09,02,04,5.80
2006,10,09,02,05,5.80
2006,10,09,02,06,5.80
2006,10,09,02,07,5.80
2006,10,09,02,08,5.90
2006,10,09,02,09,5.90
2006,10,09,02,10,5.90
2006,10,09,02,11,6.00
2006,10,09,02,12,6.00
2006,10,09,02,13,6.00
2006,10,09,02,14,6.10
2006,10,09,02,15,6.10
2006,10,09,02,16,6.20
2006,10,09,02,17,6.20
2006,10,09,02,18,6.20
2006,10,09,02,19,6.20
2006,10,09,02,20,6.30
2006,10,09,02,21,6.40
2006,10,09,02,22,6.40
2006,10,09,02,23,6.40
2006,10,09,02,24,6.40
2006,10,09,02,25,6.50
2006,10,09,02,26,6.60
2006,10,09,02,27,6.60
2006,10,09,02,28,6.70
2006,10,09,02,29,6.80
2006,10,09,02,30,7.00
2006,10,09,02,31,7.10
2006,10,09,02,32,7.20
2006,10,09,02,33,7.30
2006,10,09,02,34,7.30
2006,10,09,02,35,7.30
2006,10,09,02,36,7.30
2006,10,09,02,37,7.40
2006,10,09,02,38,7.40
2006,10,09,02,39,7.50
2006,10,09,02,40,7.60
2006,10,09,02,41,7.60
2006,10,09,02,42,7.70
2006,10,09,02,43,7.70
2006,10,09,02,44,7.60
2006,10,09,02,45,7.60
2006,10,09,02,46,7.60
2006,10,09,02,47,7.60
2006,10,09,02,48,7.60
2006,10,09,02,49,7.60
2006,10,09,02,50,7.60
2006,10,09,02,51,7.60
2006,10,09,02,52,7.70
2006,10,09,02,53,7.70
2006,10,09,02,54,7.80
2006,10,09,02,55,7.90
2006,10,09,02,56,8.00
2006,10,09,02,57,8.10
2006,10,09,02,58,8.20
2006,10,09,02,59,8.20
2006,10,09,03,00,8.20
2006,10,09,03,01,8.20
2006,10,09,03,02,8.20
2006,10,09,03,03,8.10
2006,10,09,03,04,8.00
2006,10,09,03,05,8.00
2006,10,09,03,06,7.90
2006,10,09,03,07,7.90
2006,10,09,03,08,7.90
2006,10,09,03,09,7.90
2006,10,09,03,10,8.00
2006,10,09,03,11,8.00
2006,10,09,03,12,8.00
2006,10,09,03,13,7.90
2006,10,09,03,14,7.90
2006,10,09,03,15,8.00
2006,10,09,03,16,8.00
2006,10,09,03,17,8.00
2006,10,09,03,18,8.00
2006,10,09,03,19,8.00
2006,10,09,03,20,8.10
2006,10,09,03,21,8.00
2006,10,09,03,22,8.00
2006,10,09,03,23,8.00
2006,10,09,03,24,8.00
2006,10,09,03,25,8.00
2006,10,09,03,26,8.00
2006,10,09,03,27,8.00
2006,10,09,03,28,8.00
2006,10,09,03,29,8.00
2006,10,09,03,30,8.00
2006,10,09,03,31,8.00
2006,10,09,03,32,8.10
2006,10,09,03,33,8.10
2006,10,09,03,34,8.10
2006,10,09,03,35,8.10
2006,10,09,03,36,8.10
2006,10,09,03,37,8.10
2006,10,09,03,38,8.10
2006,10,09,03,39,8.10
2006,10,09,03,40,8.20
2006,10,09,03,41,8.20
2006,10,09,03,42,8.20
2006,10,09,03,43,8.20
2006,10,09,03,44,8.30
2006,10,09,03,45,8.30
2006,10,09,03,46,8.30
2006,10,09,03,47,8.20
2006,10,09,03,48,8.20
2006,10,09,03,49,8.20
2006,10,09,03,50,8.20
2006,10,09,03,51,8.20
2006,10,09,03,52,8.20
2006,10,09,03,53,8.20
2006,10,09,03,54,8.20
2006,10,09,03,55,8.20
2006,10,09,03,56,8.20
2006,10,09,03,57,8.20
2006,10,09,03,58,8.30
2006,10,09,03,59,8.30
2006,10,09,04,00,8.30
2006,10,09,04,01,8.40
2006,10,09,04,02,8.40
2006,10,09,04,03,8.50
2006,10,09,04,04,8.50
2006,10,09,04,05,8.50
2006,10,09,04,06,8.50
2006,10,09,04,07,8.60
2006,10,09,04,08,8.60
2006,10,09,04,09,8.60
2006,10,09,04,10,8.60
2006,10,09,04,11,8.70
2006,10,09,04,12,8.70
2006,10,09,04,13,8.70
2006,10,09,04,14,8.70
2006,10,09,04,15,8.80
2006,10,09,04,16,8.80
2006,10,09,04,17,8.80
2006,10,09,04,18,8.80
2006,10,09,04,19,8.80
2006,10,09,04,20,8.80
2006,10,09,04,21,8.80
2006,10,09,04,22,8.80
2006,10,09,04,23,8.80
2006,10,09,04,24,8.80
2006,10,09,04,25,8.90
2006,10,09,04,26,8.90
2006,10,09,04,27,8.90
2006,10,09,04,28,8.90
2006,10,09,04,29,8.90
2006,10,09,04,30,9.00
2006,10,09,04,31,9.00
2006,10,09,04,32,9.10
2006,10,09,04,33,9.10
2006,10,09,04,34,9.10
2006,10,09,04,35,9.10
2006,10,09,04,36,9.20
2006,10,09,04,37,9.20
2006,10,09,04,38,9.10
2006,10,09,04,39,9.10
2006,10,09,04,40,9.10
2006,10,09,04,41,9.00
2006,10,09,04,42,9.00
2006,10,09,04,43,9.00
2006,10,09,04,44,9.10
2006,10,09,04,45,9.10
2006,10,09,04,46,9.00
2006,10,09,04,47,9.00
2006,10,09,04,48,9.00
2006,10,09,04,49,9.10
2006,10,09,04,50,9.10
2006,10,09,04,51,9.10
2006,10,09,04,52,9.20
2006,10,09,04,53,9.20
2006,10,09,04,54,9.20
2006,10,09,04,55,9.30
2006,10,09,04,56,9.30
2006,10,09,04,57,9.40
2006,10,09,04,58,9.40
2006,10,09,04,59,9.50
2006,10,09,05,00,9.50
2006,10,09,05,01,9.60
2006,10,09,05,02,9.70
2006,10,09,05,03,9.70
2006,10,09,05,04,9.80
2006,10,09,05,05,9.80
2006,10,09,05,06,9.80
2006,10,09,05,07,9.80
2006,10,09,05,08,9.80
2006,10,09,05,09,9.80
2006,10,09,05,10,9.70
2006,10,09,05,11,9.70
2006,10,09,05,12,9.70
2006,10,09,05,13,9.70
2006,10,09,05,14,9.70
2006,10,09,05,15,9.70
2006,10,09,05,16,9.70
2006,10,09,05,17,9.70
2006,10,09,05,18,9.70
2006,10,09,05,19,9.70
2006,10,09,05,20,9.70
2006,10,09,05,21,9.70
2006,10,09,05,22,9.70
2006,10,09,05,23,9.70
2006,10,09,05,24,9.60
2006,10,09,05,25,9.50
2006,10,09,05,26,9.50
2006,10,09,05,27,9.40
2006,10,09,05,28,9.40
2006,10,09,05,29,9.40
2006,10,09,05,30,9.40
2006,10,09,05,31,9.30
2006,10,09,05,32,9.30
2006,10,09,05,33,9.30
2006,10,09,05,34,9.30
2006,10,09,05,35,9.40
2006,10,09,05,36,9.40
2006,10,09,05,37,9.40
2006,10,09,05,38,9.40
2006,10,09,05,39,9.40
2006,10,09,05,40,9.40
2006,10,09,05,41,9.40
2006,10,09,05,42,9.30
2006,10,09,05,43,9.30
2006,10,09,05,44,9.30
2006,10,09,05,45,9.20
2006,10,09,05,46,9.20
2006,10,09,05,47,9.20
2006,10,09,05,48,9.20
2006,10,09,05,49,9.20
2006,10,09,05,50,9.20
2006,10,09,05,51,9.20
2006,10,09,05,52,9.20
2006,10,09,05,53,9.20
2006,10,09,05,54,9.30
2006,10,09,05,55,9.40
2006,10,09,05,56,9.40
2006,10,09,05,57,9.50
2006,10,09,05,58,9.50
2006,10,09,05,59,9.50
2006,10,09,06,00,9.50
2006,10,09,06,01,9.50
2006,10,09,06,02,9.50
2006,10,09,06,03,9.50
2006,10,09,06,04,9.50
2006,10,09,06,05,9.50
2006,10,09,06,06,9.50
2006,10,09,06,07,9.40
2006,10,09,06,08,9.50
2006,10,09,06,09,9.50
2006,10,09,06,10,9.50
2006,10,09,06,11,9.60
2006,10,09,06,12,9.60
2006,10,09,06,13,9.60
2006,10,09,06,14,9.60
2006,10,09,06,15,9.60
2006,10,09,06,16,9.60
2006,10,09,06,17,9.60
2006,10,09,06,18,9.60
2006,10,09,06,19,9.60
2006,10,09,06,20,9.60
2006,10,09,06,21,9.60
2006,10,09,06,22,9.60
2006,10,09,06,23,9.50
2006,10,09,06,24,9.50
2006,10,09,06,25,9.40
2006,10,09,06,26,9.40
2006,10,09,06,27,9.40
2006,10,09,06,28,9.40
2006,10,09,06,29,9.30
2006,10,09,06,30,9.30
2006,10,09,06,31,9.30
2006,10,09,06,32,9.20
2006,10,09,06,33,9.20
2006,10,09,06,34,9.20
2006,10,09,06,35,9.20
2006,10,09,06,36,9.20
2006,10,09,06,37,9.10
2006,10,09,06,38,9.10
2006,10,09,06,39,9.00
2006,10,09,06,40,8.90
2006,10,09,06,41,8.80
2006,10,09,06,42,8.70
2006,10,09,06,43,8.70
2006,10,09,06,44,8.60
2006,10,09,06,45,8.50
2006,10,09,06,46,8.40
2006,10,09,06,47,8.40
2006,10,09,06,48,8.30
2006,10,09,06,49,8.30
2006,10,09,06,50,8.30
2006,10,09,06,51,8.30
2006,10,09,06,52,8.20
2006,10,09,06,53,8.20
2006,10,09,06,54,8.20
2006,10,09,06,55,8.20
2006,10,09,06,56,8.10
2006,10,09,06,57,8.10
2006,10,09,06,58,8.20
2006,10,09,06,59,8.20
2006,10,09,07,00,8.20
2006,10,09,07,01,8.10
2006,10,09,07,02,8.20
2006,10,09,07,03,8.20
2006,10,09,07,04,8.10
2006,10,09,07,05,8.10
2006,10,09,07,06,8.10
2006,10,09,07,07,8.10
2006,10,09,07,08,8.00
2006,10,09,07,09,8.00
2006,10,09,07,10,8.00
2006,10,09,07,11,7.90
2006,10,09,07,12,7.90
2006,10,09,07,13,7.90
2006,10,09,07,14,7.80
2006,10,09,07,15,7.80
2006,10,09,07,16,7.80
2006,10,09,07,17,7.80
2006,10,09,07,18,7.90
2006,10,09,07,19,7.90
2006,10,09,07,20,8.00
2006,10,09,07,21,8.10
2006,10,09,07,22,8.20
2006,10,09,07,23,8.30
2006,10,09,07,24,8.30
2006,10,09,07,25,8.40
2006,10,09,07,26,8.40
2006,10,09,07,27,8.40
2006,10,09,07,28,8.40
2006,10,09,07,29,8.40
2006,10,09,07,30,8.40
2006,10,09,07,31,8.40
2006,10,09,07,32,8.40
2006,10,09,07,33,8.30
2006,10,09,07,34,8.30
2006,10,09,07,35,8.30
2006,10,09,07,36,8.40
2006,10,09,07,37,8.40
2006,10,09,07,38,8.40
2006,10,09,07,39,8.40
2006,10,09,07,40,8.40
2006,10,09,07,41,8.40
2006,10,09,07,42,8.40
2006,10,09,07,43,8.40
2006,10,09,07,44,8.30
2006,10,09,07,45,8.30
2006,10,09,07,46,8.30
2006,10,09,07,47,8.30
2006,10,09,07,48,8.20
2006,10,09,07,49,8.20
2006,10,09,07,50,8.20
2006,10,09,07,51,8.20
2006,10,09,07,52,8.10
2006,10,09,07,53,8.10
2006,10,09,07,54,8.10
2006,10,09,07,55,8.00
2006,10,09,07,56,8.00
2006,10,09,07,57,8.10
2006,10,09,07,58,8.10
2006,10,09,07,59,8.10
2006,10,09,08,00,8.20
2006,10,09,08,01,8.20
2006,10,09,08,02,8.20
2006,10,09,08,03,8.20
2006,10,09,08,04,8.20
2006,10,09,08,05,8.20
2006,10,09,08,06,8.20
2006,10,09,08,07,8.20
2006,10,09,08,08,8.30
2006,10,09,08,09,8.30
2006,10,09,08,10,8.30
2006,10,09,08,11,8.30
2006,10,09,08,12,8.40
2006,10,09,08,13,8.40
2006,10,09,08,14,8.50
2006,10,09,08,15,8.50
2006,10,09,08,16,8.60
2006,10,09,08,17,8.60
2006,10,09,08,18,8.60
2006,10,09,08,19,8.70
2006,10,09,08,20,8.70
2006,10,09,08,21,8.80
2006,10,09,08,22,8.80
2006,10,09,08,23,8.90
2006,10,09,08,24,9.00
2006,10,09,08,25,9.00
2006,10,09,08,26,9.10
2006,10,09,08,27,9.10
2006,10,09,08,28,9.20
2006,10,09,08,29,9.30
2006,10,09,08,30,9.40
2006,10,09,08,31,9.50
2006,10,09,08,32,9.50
2006,10,09,08,33,9.60
2006,10,09,08,34,9.60
2006,10,09,08,35,9.70
2006,10,09,08,36,9.70
2006,10,09,08,37,9.80
2006,10,09,08,38,9.80
2006,10,09,08,39,9.90
2006,10,09,08,40,9.90
2006,10,09,08,41,10.00
2006,10,09,08,42,10.10
2006,10,09,08,43,10.10
2006,10,09,08,44,10.10
2006,10,09,08,45,10.10
2006,10,09,08,46,10.10
2006,10,09,08,47,10.20
2006,10,09,08,48,10.20
2006,10,09,08,49,10.30
2006,10,09,08,50,10.30
2006,10,09,08,51,10.30
2006,10,09,08,52,10.40
2006,10,09,08,53,10.40
2006,10,09,08,54,10.40
2006,10,09,08,55,10.40
2006,10,09,08,56,10.50
2006,10,09,08,57,10.60
2006,10,09,08,58,10.60
2006,10,09,08,59,10.60
2006,10,09,09,00,10.60
2006,10,09,09,01,10.70
2006,10,09,09,02,10.70
2006,10,09,09,03,10.80
2006,10,09,09,04,10.80
2006,10,09,09,05,10.90
2006,10,09,09,06,10.90
2006,10,09,09,07,10.90
2006,10,09,09,08,10.90
2006,10,09,09,09,11.00
2006,10,09,09,10,11.10
2006,10,09,09,11,11.10
2006,10,09,09,12,11.10
2006,10,09,09,13,11.20
2006,10,09,09,14,11.30
2006,10,09,09,15,11.30
2006,10,09,09,16,11.50
2006,10,09,09,17,11.70
2006,10,09,09,18,11.80
2006,10,09,09,19,11.80
2006,10,09,09,20,12.00
2006,10,09,09,21,12.10
2006,10,09,09,22,12.30
2006,10,09,09,23,12.40
2006,10,09,09,24,12.40
2006,10,09,09,25,12.50
2006,10,09,09,26,12.50
2006,10,09,09,27,12.50
2006,10,09,09,28,12.50
2006,10,09,09,29,12.50
2006,10,09,09,30,12.50
2006,10,09,09,31,12.50
2006,10,09,09,32,12.50
2006,10,09,09,33,12.50
2006,10,09,09,34,12.50
2006,10,09,09,35,12.60
2006,10,09,09,36,12.60
2006,10,09,09,37,12.60
2006,10,09,09,38,12.60
2006,10,09,09,39,12.60
2006,10,09,09,40,12.60
2006,10,09,09,41,12.70
2006,10,09,09,42,12.70
2006,10,09,09,43,12.80
2006,10,09,09,44,12.80
2006,10,09,09,45,12.80
2006,10,09,09,46,12.80
2006,10,09,09,47,12.80
2006,10,09,09,48,12.80
2006,10,09,09,49,12.80
2006,10,09,09,50,12.80
2006,10,09,09,51,12.90
2006,10,09,09,52,13.00
2006,10,09,09,53,13.10
2006,10,09,09,54,13.10
2006,10,09,09,55,13.20
2006,10,09,09,56,13.20
2006,10,09,09,57,13.20
2006,10,09,09,58,13.20
2006,10,09,09,59,13.20
2006,10,09,10,00,13.20
2006,10,09,10,01,13.30
2006,10,09,10,02,13.30
2006,10,09,10,03,13.30
2006,10,09,10,04,13.30
2006,10,09,10,05,13.30
2006,10,09,10,06,13.40
2006,10,09,10,07,13.50
2006,10,09,10,08,13.60
2006,10,09,10,09,13.70
2006,10,09,10,10,13.70
2006,10,09,10,11,13.80
2006,10,09,10,12,13.80
2006,10,09,10,13,13.80
2006,10,09,10,14,13.80
2006,10,09,10,15,13.80
2006,10,09,10,16,13.90
2006,10,09,10,17,13.90
2006,10,09,10,18,14.00
2006,10,09,10,19,14.00
2006,10,09,10,20,14.00
2006,10,09,10,21,14.00
2006,10,09,10,22,14.10
2006,10,09,10,23,14.00
2006,10,09,10,24,14.00
2006,10,09,10,25,14.00
2006,10,09,10,26,14.10
2006,10,09,10,27,14.10
2006,10,09,10,28,14.20
2006,10,09,10,29,14.20
2006,10,09,10,30,14.20
2006,10,09,10,31,14.20
2006,10,09,10,32,14.20
2006,10,09,10,33,14.30
2006,10,09,10,34,14.30
2006,10,09,10,35,14.40
2006,10,09,10,36,14.40
2006,10,09,10,37,14.50
2006,10,09,10,38,14.50
2006,10,09,10,39,14.50
2006,10,09,10,40,14.50
2006,10,09,10,41,14.50
2006,10,09,10,42,14.60
2006,10,09,10,43,14.70
2006,10,09,10,44,14.70
2006,10,09,10,45,14.80
2006,10,09,10,46,14.80
2006,10,09,10,47,14.80
2006,10,09,10,48,14.90
2006,10,09,10,49,14.90
2006,10,09,10,50,14.80
2006,10,09,10,51,14.80
2006,10,09,10,52,14.80
2006,10,09,10,53,14.90
2006,10,09,10,54,14.90
2006,10,09,10,55,14.90
2006,10,09,10,56,15.00
2006,10,09,10,57,15.00
2006,10,09,10,58,15.00
2006,10,09,10,59,15.00
2006,10,09,11,00,15.00
2006,10,09,11,01,15.00
2006,10,09,11,02,15.10
2006,10,09,11,03,15.10
2006,10,09,11,04,15.10
2006,10,09,11,05,15.20
2006,10,09,11,06,15.20
2006,10,09,11,07,15.30
2006,10,09,11,08,15.20
2006,10,09,11,09,15.20
2006,10,09,11,10,15.20
2006,10,09,11,11,15.20
2006,10,09,11,12,15.20
2006,10,09,11,13,15.30
2006,10,09,11,14,15.30
2006,10,09,11,15,15.30
2006,10,09,11,16,15.30
2006,10,09,11,17,15.30
2006,10,09,11,18,15.20
2006,10,09,11,19,15.20
2006,10,09,11,20,15.20
2006,10,09,11,21,15.10
2006,10,09,11,22,15.10
2006,10,09,11,23,15.00
2006,10,09,11,24,15.00
2006,10,09,11,25,15.00
2006,10,09,11,26,15.00
2006,10,09,11,27,15.10
2006,10,09,11,28,15.10
2006,10,09,11,29,15.10
2006,10,09,11,30,15.00
2006,10,09,11,31,15.00
2006,10,09,11,32,15.00
2006,10,09,11,33,15.00
2006,10,09,11,34,15.00
2006,10,09,11,35,15.00
2006,10,09,11,36,15.10
2006,10,09,11,37,15.20
2006,10,09,11,38,15.20
2006,10,09,11,39,15.30
2006,10,09,11,40,15.30
2006,10,09,11,41,15.30
2006,10,09,11,42,15.30
2006,10,09,11,43,15.30
2006,10,09,11,44,15.20
2006,10,09,11,45,15.20
2006,10,09,11,46,15.20
2006,10,09,11,47,15.20
2006,10,09,11,48,15.20
2006,10,09,11,49,15.20
2006,10,09,11,50,15.20
2006,10,09,11,51,15.20
2006,10,09,11,52,15.30
2006,10,09,11,53,15.30
2006,10,09,11,54,15.30
2006,10,09,11,55,15.30
2006,10,09,11,56,15.30
2006,10,09,11,57,15.40
2006,10,09,11,58,15.40
2006,10,09,11,59,15.50
2006,10,09,12,00,15.50
2006,10,09,12,01,15.50
2006,10,09,12,02,15.50
2006,10,09,12,03,15.50
2006,10,09,12,04,15.50
2006,10,09,12,05,15.50
2006,10,09,12,06,15.60
2006,10,09,12,07,15.60
2006,10,09,12,08,15.70
2006,10,09,12,09,15.80
2006,10,09,12,10,15.80
2006,10,09,12,11,15.80
2006,10,09,12,12,15.90
2006,10,09,12,13,15.90
2006,10,09,12,14,15.90
2006,10,09,12,15,15.90
2006,10,09,12,16,15.90
2006,10,09,12,17,15.80
2006,10,09,12,18,15.80
2006,10,09,12,19,15.90
2006,10,09,12,20,15.90
2006,10,09,12,21,15.90
2006,10,09,12,22,15.90
2006,10,09,12,23,15.90
2006,10,09,12,24,15.90
2006,10,09,12,25,15.90
2006,10,09,12,26,15.90
2006,10,09,12,27,15.90
2006,10,09,12,28,16.00
2006,10,09,12,29,16.10
2006,10,09,12,30,16.10
2006,10,09,12,31,16.10
2006,10,09,12,32,16.10
2006,10,09,12,33,16.10
2006,10,09,12,34,16.10
2006,10,09,12,35,16.10
2006,10,09,12,36,16.10
2006,10,09,12,37,16.10
2006,10,09,12,38,16.10
2006,10,09,12,39,16.10
2006,10,09,12,40,16.20
2006,10,09,12,41,16.20
2006,10,09,12,42,16.30
2006,10,09,12,43,16.40
2006,10,09,12,44,16.40
2006,10,09,12,45,16.40
2006,10,09,12,46,16.50
2006,10,09,12,47,16.60
2006,10,09,12,48,16.60
2006,10,09,12,49,16.60
2006,10,09,12,50,16.70
2006,10,09,12,51,16.70
2006,10,09,12,52,16.70
2006,10,09,12,53,16.80
2006,10,09,12,54,16.80
2006,10,09,12,55,16.90
2006,10,09,12,56,16.90
2006,10,09,12,57,17.00
2006,10,09,12,58,17.00
2006,10,09,12,59,17.00
2006,10,09,13,00,17.00
2006,10,09,13,01,17.10
2006,10,09,13,02,17.00
2006,10,09,13,03,17.00
2006,10,09,13,04,16.90
2006,10,09,13,05,16.90
2006,10,09,13,06,16.90
2006,10,09,13,07,17.00
2006,10,09,13,08,17.00
2006,10,09,13,09,17.00
2006,10,09,13,10,17.00
2006,10,09,13,11,16.90
2006,10,09,13,12,16.90
2006,10,09,13,13,16.80
2006,10,09,13,14,16.70
2006,10,09,13,15,16.70
2006,10,09,13,16,16.70
2006,10,09,13,17,16.70
2006,10,09,13,18,16.80
2006,10,09,13,19,16.80
2006,10,09,13,20,16.90
2006,10,09,13,21,16.90
2006,10,09,13,22,17.00
2006,10,09,13,23,17.00
2006,10,09,13,24,17.10
2006,10,09,13,25,17.10
2006,10,09,13,26,17.10
2006,10,09,13,27,17.20
2006,10,09,13,28,17.20
2006,10,09,13,29,17.10
2006,10,09,13,30,17.10
2006,10,09,13,31,17.20
2006,10,09,13,32,17.20
2006,10,09,13,33,17.30
2006,10,09,13,34,17.30
2006,10,09,13,35,17.30
2006,10,09,13,36,17.30
2006,10,09,13,37,17.30
2006,10,09,13,38,17.30
2006,10,09,13,39,17.30
2006,10,09,13,40,17.30
2006,10,09,13,41,17.30
2006,10,09,13,42,17.30
2006,10,09,13,43,17.30
2006,10,09,13,44,17.30
2006,10,09,13,45,17.30
2006,10,09,13,46,17.30
2006,10,09,13,47,17.20
2006,10,09,13,48,17.10
2006,10,09,13,49,17.00
2006,10,09,13,50,17.10
2006,10,09,13,51,17.10
2006,10,09,13,52,17.00
2006,10,09,13,53,17.00
2006,10,09,13,54,17.00
2006,10,09,13,55,17.00
2006,10,09,13,56,17.00
2006,10,09,13,57,16.90
2006,10,09,13,58,17.00
2006,10,09,13,59,17.00
2006,10,09,14,00,17.10
2006,10,09,14,01,17.20
2006,10,09,14,02,17.30
2006,10,09,14,03,17.30
2006,10,09,14,04,17.30
2006,10,09,14,05,17.40
2006,10,09,14,06,17.40
2006,10,09,14,07,17.50
2006,10,09,14,08,17.50
2006,10,09,14,09,17.50
2006,10,09,14,10,17.50
2006,10,09,14,11,17.50
2006,10,09,14,12,17.50
2006,10,09,14,13,17.50
2006,10,09,14,14,17.50
2006,10,09,14,15,17.50
2006,10,09,14,16,17.60
2006,10,09,14,17,17.60
2006,10,09,14,18,17.60
2006,10,09,14,19,17.70
2006,10,09,14,20,17.70
2006,10,09,14,21,17.80
2006,10,09,14,22,17.80
2006,10,09,14,23,17.70
2006,10,09,14,24,17.70
2006,10,09,14,25,17.70
2006,10,09,14,26,17.70
2006,10,09,14,27,17.70
2006,10,09,14,28,17.80
2006,10,09,14,29,17.80
2006,10,09,14,30,17.90
2006,10,09,14,31,17.90
2006,10,09,14,32,17.90
2006,10,09,14,33,17.90
2006,10,09,14,34,17.90
2006,10,09,14,35,17.90
2006,10,09,14,36,17.90
2006,10,09,14,37,17.90
2006,10,09,14,38,17.90
2006,10,09,14,39,17.90
2006,10,09,14,40,17.90
2006,10,09,14,41,17.90
2006,10,09,14,42,17.90
2006,10,09,14,43,17.90
2006,10,09,14,44,18.00
2006,10,09,14,45,18.10
2006,10,09,14,46,18.10
2006,10,09,14,47,18.00
2006,10,09,14,48,18.10
2006,10,09,14,49,18.10
2006,10,09,14,50,18.10
2006,10,09,14,51,18.10
2006,10,09,14,52,18.10
2006,10,09,14,53,18.00
2006,10,09,14,54,18.00
2006,10,09,14,55,17.90
2006,10,09,14,56,17.90
2006,10,09,14,57,17.90
2006,10,09,14,58,17.90
2006,10,09,14,59,17.90
2006,10,09,15,00,17.90
2006,10,09,15,01,17.90
2006,10,09,15,02,17.90
2006,10,09,15,03,18.00
2006,10,09,15,04,18.10
2006,10,09,15,05,18.10
2006,10,09,15,06,18.20
2006,10,09,15,07,18.20
2006,10,09,15,08,18.20
2006,10,09,15,09,18.20
2006,10,09,15,10,18.20
2006,10,09,15,11,18.20
2006,10,09,15,12,18.10
2006,10,09,15,13,18.10
2006,10,09,15,14,18.00
2006,10,09,15,15,17.90
2006,10,09,15,16,17.90
2006,10,09,15,17,17.90
2006,10,09,15,18,17.90
2006,10,09,15,19,17.90
2006,10,09,15,20,17.90
2006,10,09,15,21,17.90
2006,10,09,15,22,17.90
2006,10,09,15,23,17.90
2006,10,09,15,24,17.90
2006,10,09,15,25,17.90
2006,10,09,15,26,17.90
2006,10,09,15,27,17.90
2006,10,09,15,28,17.90
2006,10,09,15,29,17.90
2006,10,09,15,30,18.00
2006,10,09,15,31,18.00
2006,10,09,15,32,17.90
2006,10,09,15,33,17.90
2006,10,09,15,34,17.90
2006,10,09,15,35,17.90
2006,10,09,15,36,18.00
2006,10,09,15,37,18.10
2006,10,09,15,38,18.10
2006,10,09,15,39,18.20
2006,10,09,15,40,18.20
2006,10,09,15,41,18.20
2006,10,09,15,42,18.00
2006,10,09,15,43,17.90
2006,10,09,15,44,17.80
2006,10,09,15,45,17.70
2006,10,09,15,46,17.60
2006,10,09,15,47,17.50
2006,10,09,15,48,17.50
2006,10,09,15,49,17.40
2006,10,09,15,50,17.40
2006,10,09,15,51,17.40
2006,10,09,15,52,17.50
2006,10,09,15,53,17.50
2006,10,09,15,54,17.60
2006,10,09,15,55,17.70
2006,10,09,15,56,17.70
2006,10,09,15,57,17.70
2006,10,09,15,58,17.80
2006,10,09,15,59,17.90
2006,10,09,16,00,17.90
2006,10,09,16,01,17.80
2006,10,09,16,02,17.80
2006,10,09,16,03,17.70
2006,10,09,16,04,17.70
2006,10,09,16,05,17.60
2006,10,09,16,06,17.50
2006,10,09,16,07,17.40
2006,10,09,16,08,17.40
2006,10,09,16,09,17.40
2006,10,09,16,10,17.30
2006,10,09,16,11,17.30
2006,10,09,16,12,17.30
2006,10,09,16,13,17.30
2006,10,09,16,14,17.30
2006,10,09,16,15,17.30
2006,10,09,16,16,17.30
2006,10,09,16,17,17.30
2006,10,09,16,18,17.30
2006,10,09,16,19,17.30
2006,10,09,16,20,17.30
2006,10,09,16,21,17.30
2006,10,09,16,22,17.30
2006,10,09,16,23,17.30
2006,10,09,16,24,17.30
2006,10,09,16,25,17.30
2006,10,09,16,26,17.30
2006,10,09,16,27,17.30
2006,10,09,16,28,17.30
2006,10,09,16,29,17.30
2006,10,09,16,30,17.20
2006,10,09,16,31,17.20
2006,10,09,16,32,17.20
2006,10,09,16,33,17.10
2006,10,09,16,34,17.10
2006,10,09,16,35,17.10
2006,10,09,16,36,17.10
2006,10,09,16,37,17.00
2006,10,09,16,38,17.00
2006,10,09,16,39,17.00
2006,10,09,16,40,16.90
2006,10,09,16,41,16.90
2006,10,09,16,42,16.80
2006,10,09,16,43,16.80
2006,10,09,16,44,16.70
2006,10,09,16,45,16.70
2006,10,09,16,46,16.70
2006,10,09,16,47,16.60
2006,10,09,16,48,16.50
2006,10,09,16,49,16.40
2006,10,09,16,50,16.30
2006,10,09,16,51,16.20
2006,10,09,16,52,16.10
2006,10,09,16,53,16.00
2006,10,09,16,54,15.90
2006,10,09,16,55,15.80
2006,10,09,16,56,15.80
2006,10,09,16,57,15.70
2006,10,09,16,58,15.70
2006,10,09,16,59,15.60
2006,10,09,17,00,15.60
2006,10,09,17,01,15.60
2006,10,09,17,02,15.50
2006,10,09,17,03,15.50
2006,10,09,17,04,15.40
2006,10,09,17,05,15.40
2006,10,09,17,06,15.40
2006,10,09,17,07,15.40
2006,10,09,17,08,15.40
2006,10,09,17,09,15.30
2006,10,09,17,10,15.30
2006,10,09,17,11,15.30
2006,10,09,17,12,15.30
2006,10,09,17,13,15.20
2006,10,09,17,14,15.10
2006,10,09,17,15,15.10
2006,10,09,17,16,15.00
2006,10,09,17,17,14.90
2006,10,09,17,18,14.80
2006,10,09,17,19,14.80
2006,10,09,17,20,14.70
2006,10,09,17,21,14.70
2006,10,09,17,22,14.60
2006,10,09,17,23,14.60
2006,10,09,17,24,14.50
2006,10,09,17,25,14.40
2006,10,09,17,26,14.40
2006,10,09,17,27,14.30
2006,10,09,17,28,14.30
2006,10,09,17,29,14.20
2006,10,09,17,30,14.20
2006,10,09,17,31,14.10
2006,10,09,17,32,14.00
2006,10,09,17,33,14.00
2006,10,09,17,34,13.90
2006,10,09,17,35,13.90
2006,10,09,17,36,13.90
2006,10,09,17,37,13.90
2006,10,09,17,38,13.90
2006,10,09,17,39,13.90
2006,10,09,17,40,13.90
2006,10,09,17,41,13.90
2006,10,09,17,42,13.80
2006,10,09,17,43,13.80
2006,10,09,17,44,13.70
2006,10,09,17,45,13.70
2006,10,09,17,46,13.60
2006,10,09,17,47,13.60
2006,10,09,17,48,13.50
2006,10,09,17,49,13.50
2006,10,09,17,50,13.40
2006,10,09,17,51,13.40
2006,10,09,17,52,13.30
2006,10,09,17,53,13.30
2006,10,09,17,54,13.30
2006,10,09,17,55,13.30
2006,10,09,17,56,13.30
2006,10,09,17,57,13.30
2006,10,09,17,58,13.20
2006,10,09,17,59,13.20
2006,10,09,18,00,13.20
2006,10,09,18,01,13.20
2006,10,09,18,02,13.10
2006,10,09,18,03,13.10
2006,10,09,18,04,13.10
2006,10,09,18,05,13.10
2006,10,09,18,06,13.00
2006,10,09,18,07,13.00
2006,10,09,18,08,13.00
2006,10,09,18,09,13.00
2006,10,09,18,10,12.90
2006,10,09,18,11,12.90
2006,10,09,18,12,12.90
2006,10,09,18,13,12.80
2006,10,09,18,14,12.80
2006,10,09,18,15,12.80
2006,10,09,18,16,12.80
2006,10,09,18,17,12.80
2006,10,09,18,18,12.80
2006,10,09,18,19,12.70
2006,10,09,18,20,12.70
2006,10,09,18,21,12.70
2006,10,09,18,22,12.60
2006,10,09,18,23,12.60
2006,10,09,18,24,12.60
2006,10,09,18,25,12.50
2006,10,09,18,26,12.50
2006,10,09,18,27,12.50
2006,10,09,18,28,12.40